Regional Weather Roundup
Issued by NWS

Home | Current Version | Previous Version | Text Only | Print | Product List | Glossary On
Versions: 1 2 3 4 5 6 7 8 9 10 11 12 13 14 15 16 17 18 19 20 21 22 23 24 25 26 27 28 29 30 31 32 33 34 35 36 37 38 39 40 41 42 43 44 45 46 47 48 49 50
000
ASUS42 KFFC 230110
RWRGA
WEATHER ROUNDUP FOR GEORGIA
NATIONAL WEATHER SERVICE PEACHTREE CITY GA
900 PM EDT SAT JUL 22 2017

NOTE: "FAIR" INDICATES FEW OR NO CLOUDS BELOW 12,000 FEET WITH NO
SIGNIFICANT WEATHER AND/OR OBSTRUCTIONS TO VISIBILITY.

* = USE WITH CAUTION. THE STATIONS MARKED WITH AN ASTERISK MAY NOT
REPORT WEATHER SUCH AS PRECIPITATION, FOG, OR THUNDER AND ARE NOT
QUALITY CONTROLLED BY NWS.

THE REMARK "TC" DENOTES TEMPERATURE READING IN DEGREES CELSIUS.

GAZ001>058-230200-
NORTH GEORGIA

CITY           SKY/WX    TMP DP  RH WIND       PRES   REMARKS
ATLANTA        CLOUDY    80  72  76 CALM      29.99R
ATHENS         CLEAR     84  74  71 VRB5      29.97R HX  91
CHAMBLEE       PTCLDY    81  71  71 SW8       29.98R
PEACHTREE CITY CLOUDY    79  78  97 CALM      29.99R
ROME           CLOUDY    85  78  80 S7        29.93S HX  96
WEST ATLANTA   PTCLDY    81  75  82 SW3       29.98R
GAINESVILLE    PTCLDY    83  75  77 W5        30.01R HX  90
CARTERSVILLE   PTCLDY    79  77  94 CALM      29.97R


CITY           SKY/WX    TMP DP  RH WIND       PRES   REMARKS
LAWRENCEVILLE* CLEAR     81  75  83 CALM      29.99R
KENNESAW*      PTCLDY    79  73  83 CALM      30.01R
CANTON*        PTCLDY    82  73  74 S5        30.00S
$$

GAZ059>098-102>109-230200-
CENTRAL GEORGIA

CITY           SKY/WX    TMP DP  RH WIND       PRES   REMARKS
AUGUSTA-BUSH   CLEAR     86  73  65 S7        29.93S HX  93
AUGUSTA-DANIEL CLEAR     89  71  55 S8        29.95R HX  95
COLUMBUS       PTCLDY    85  75  72 E3        29.97R HX  93
MACON          PTCLDY    83  73  72 CALM      29.96R


CITY           SKY/WX    TMP DP  RH WIND       PRES   REMARKS
LAGRANGE*      RAIN      80  77  90 CALM      29.98F
SYLVANIA*      CLEAR     82  78  88 S3        29.98R HX  91
MILLEDGEVILLE* PTCLDY    84  75  74 CALM      29.95S HX  92
$$

GAZ099>101-110>166-230200-
SOUTH GEORGIA

CITY           SKY/WX    TMP DP  RH WIND       PRES   REMARKS
SAVANNAH       PTCLDY    84  72  67 S7        29.98R
VALDOSTA       CLOUDY    80  76  87 S5        30.00R
ALMA           CLEAR     84  75  74 S5        29.98R HX  92
ST SIMONS      CLEAR     80  74  81 S8        30.00R
ALBANY         PTCLDY    85  75  72 S12       30.00R HX  93
BRUNSWICK      CLEAR     81  73  78 S8        30.00R


CITY           SKY/WX    TMP DP  RH WIND       PRES   REMARKS
BAINBRIDGE*    CLOUDY    84  79  84 SW6       30.00R HX  96
MOULTRIE*      CLEAR     81  75  83 SW5       30.01S
VIDALIA*       CLEAR     86  75  70 CALM      29.97S HX  95
WAYCROSS*      CLEAR     83  80  90 S7        29.99R HX  95
DOUGLAS*       CLEAR     82  73  74 S5        30.00R
$$



USA.gov is the U.S. government's official web portal to all federal, state and local government web resources and services.